Data for 10/06/2011

Time Sea-Level Adjusted Pressure Absolute Pressure Temperature Relative Humidity Dew Point   
(mb) (inHg) (mb) (inHg) (C) (F) (%) (C) (F)
00:05 1002 29.59 831 24.54 9.7 49.5 83 6.9 44.5
00:10 1002 29.59 831 24.54 9.8 49.6 82 6.8 44.3
00:15 1002 29.59 831 24.54 9.8 49.6 82 6.8 44.3
00:20 1002 29.59 831 24.54 9.7 49.5 82 6.8 44.3
00:25 1002 29.59 831 24.54 9.7 49.4 82 6.9 44.3
00:30 1002 29.59 831 24.54 9.6 49.3 82 6.7 44
00:35 1002 29.59 831 24.54 9.4 48.9 84 6.8 44.2
00:40 1002 29.59 831 24.54 9.1 48.3 82 6.2 43.2
00:45 1002 29.59 831 24.54 8.8 47.9 83 6.1 43
00:50 1002 29.59 831 24.54 8.9 48 83 6.1 43
00:55 1002 29.59 831 24.54 8.9 48 82 5.9 42.7
01:00 1002 29.59 832 24.57 8.9 48 82 6 42.8
01:05 1002 29.59 832 24.57 8.9 48.1 81 5.8 42.5
01:10 1002 29.59 832 24.57 8.8 47.8 81 5.8 42.4
01:15 1002 29.59 831 24.54 8.6 47.5 81 5.6 42.1
01:20 1002 29.59 832 24.57 8.4 47.1 83 5.7 42.2
01:25 1002 29.59 832 24.57 8.7 47.6 80 5.4 41.8
01:30 1002 29.59 832 24.57 8.9 47.9 80 5.6 42
01:35 1002 29.59 832 24.57 8.5 47.3 81 5.5 41.9
01:40 1002 29.59 832 24.57 8.4 47.2 80 5.3 41.5
01:45 1002 29.59 832 24.57 8.3 47 81 5.3 41.6
01:50 1003 29.62 832 24.57 8.5 47.2 80 5.2 41.4
01:55 1003 29.62 832 24.57 8.3 46.9 80 5.1 41.2
02:00 1003 29.62 832 24.57 8 46.4 80 4.8 40.7
02:05 1003 29.62 832 24.57 8.2 46.8 80 4.9 40.9
02:10 1003 29.62 832 24.57 8.4 47.2 79 5.1 41.2
02:15 1003 29.62 832 24.57 8.4 47.1 80 5.2 41.3
02:20 1003 29.62 832 24.57 8.3 46.9 80 5.1 41.2
02:25 1003 29.62 832 24.57 8.2 46.8 79 4.9 40.7
02:30 1003 29.62 832 24.57 7.8 46.1 81 4.8 40.7
02:35 1003 29.62 832 24.57 7.7 45.8 81 4.6 40.3
02:40 1003 29.62 832 24.57 7.7 45.9 78 4.2 39.5
02:45 1003 29.62 832 24.57 8.3 46.9 75 4.2 39.5
02:50 1002 29.59 832 24.57 8.4 47.2 76 4.4 39.9
02:55 1002 29.59 832 24.57 8.4 47.1 76 4.4 40
03:00 1003 29.62 832 24.57 8.2 46.8 78 4.7 40.5
03:05 1003 29.62 832 24.57 8.1 46.6 77 4.4 39.9
03:10 1003 29.62 832 24.57 8.2 46.8 78 4.6 40.3
03:15 1003 29.62 832 24.57 8.1 46.6 77 4.4 40
03:20 1002 29.59 832 24.57 8.2 46.8 78 4.5 40.2
03:25 1002 29.59 832 24.57 8 46.4 80 4.7 40.5
03:30 1002 29.59 832 24.57 7.9 46.2 80 4.6 40.4
03:35 1002 29.59 832 24.57 8 46.3 79 4.6 40.2
03:40 1002 29.59 831 24.54 8 46.4 77 4.2 39.6
03:45 1002 29.59 831 24.54 8.1 46.6 77 4.4 39.9
03:50 1002 29.59 832 24.57 7.8 46 77 3.9 39.1
03:55 1002 29.59 832 24.57 7.7 45.8 75 3.6 38.4
04:00 1003 29.62 832 24.57 7.6 45.6 77 3.7 38.7
04:05 1003 29.62 832 24.57 7.2 45 79 3.7 38.7
04:10 1003 29.62 832 24.57 7 44.6 79 3.7 38.6
04:15 1003 29.62 832 24.57 6.8 44.3 80 3.7 38.6
04:20 1003 29.62 832 24.57 6.3 43.4 84 3.8 38.8
04:25 1003 29.62 832 24.57 5.6 42.1 86 3.5 38.2
04:30 1003 29.62 832 24.57 5.5 41.9 84 3 37.4
04:35 1003 29.62 832 24.57 5.9 42.6 82 3 37.4
04:40 1003 29.62 832 24.57 5.9 42.7 80 2.8 37.1
04:45 1003 29.62 832 24.57 6.1 42.9 79 2.8 37
04:50 1003 29.62 832 24.57 6.3 43.4 78 2.8 37
04:55 1003 29.62 832 24.57 6.3 43.3 79 3 37.3
05:00 1003 29.62 832 24.57 5.8 42.4 80 2.6 36.7
05:05 1003 29.62 832 24.57 6 42.8 78 2.5 36.5
05:10 1003 29.62 832 24.57 5.8 42.5 81 2.8 37
05:15 1003 29.62 832 24.57 5.7 42.2 81 2.7 36.8
05:20 1003 29.62 832 24.57 5.7 42.3 81 2.7 36.9
05:25 1003 29.62 832 24.57 5.6 42.2 81 2.6 36.7
05:30 1003 29.62 833 24.6 5.7 42.2 80 2.6 36.6
05:35 1003 29.62 833 24.6 5.7 42.2 82 2.8 37
05:40 1003 29.62 833 24.6 5.4 41.7 82 2.6 36.7
05:45 1003 29.62 833 24.6 5.5 41.8 82 2.6 36.7
05:50 1003 29.62 833 24.6 5.9 42.6 81 2.8 37.1
05:55 1003 29.62 832 24.57 6.3 43.3 80 3.1 37.6
06:00 1003 29.62 832 24.57 6.1 43 82 3.2 37.8
06:05 1003 29.62 833 24.6 6 42.8 81 3 37.5
06:10 1003 29.62 833 24.6 5.7 42.2 83 3.1 37.6
06:15 1004 29.65 833 24.6 5.2 41.4 83 2.6 36.6
06:20 1004 29.65 833 24.6 5.1 41.1 82 2.3 36.2
06:25 1003 29.62 833 24.6 5.2 41.3 81 2.2 36
06:30 1003 29.62 833 24.6 5.7 42.2 80 2.5 36.6
06:35 1003 29.62 833 24.6 5.9 42.7 80 2.7 36.8
06:40 1003 29.62 833 24.6 5.9 42.6 80 2.6 36.8
06:45 1003 29.62 833 24.6 5.8 42.4 81 2.7 36.9
06:50 1003 29.62 832 24.57 5.6 42 82 2.7 36.8
06:55 1003 29.62 833 24.6 5.4 41.8 83 2.7 36.9
07:00 1003 29.62 833 24.6 5.5 41.9 82 2.7 36.8
07:05 1003 29.62 833 24.6 5.8 42.4 80 2.6 36.7
07:10 1003 29.62 833 24.6 6.5 43.7 74 2.2 36
07:15 1003 29.62 832 24.57 7.1 44.7 73 2.6 36.8
07:20 1003 29.62 832 24.57 7.2 45 73 2.7 36.9
07:25 1003 29.62 832 24.57 7.3 45.1 74 2.9 37.2
07:30 1003 29.62 832 24.57 7.1 44.9 75 3 37.4
07:35 1003 29.62 833 24.6 6.7 44.1 76 2.8 37.1
07:40 1003 29.62 833 24.6 6.8 44.2 77 3 37.4
07:45 1003 29.62 833 24.6 6.7 44 78 3.1 37.5
07:50 1003 29.62 833 24.6 6.6 43.8 78 2.9 37.3
07:55 1003 29.62 832 24.57 6.7 44 77 3 37.5
08:00 1003 29.62 833 24.6 7 44.7 77 3.2 37.8
08:05 1003 29.62 833 24.6 7.6 45.6 75 3.4 38.1
08:10 1003 29.62 833 24.6 8.2 46.8 72 3.5 38.3
08:15 1004 29.65 833 24.6 8.8 47.9 69 3.6 38.4
08:20 1004 29.65 833 24.6 9.2 48.6 68 3.7 38.7
08:25 1004 29.65 833 24.6 9.6 49.2 64 3.2 37.8
08:30 1004 29.65 833 24.6 9.9 49.8 65 3.8 38.8
08:35 1004 29.65 833 24.6 10 49.9 66 4 39.2
08:40 1004 29.65 833 24.6 10.3 50.5 66 4.1 39.5
08:45 1003 29.62 833 24.6 10.9 51.7 63 4.3 39.7
08:50 1004 29.65 833 24.6 11.5 52.7 63 4.7 40.4
08:55 1004 29.65 833 24.6 11.3 52.3 64 4.8 40.7
09:00 1004 29.65 833 24.6 11.1 52 65 4.8 40.6
09:05 1004 29.65 833 24.6 10.9 51.6 67 4.9 40.9
09:10 1004 29.65 833 24.6 10.6 51 68 5 41
09:15 1004 29.65 833 24.6 10.1 50.2 71 5 41
09:20 1004 29.65 833 24.6 10 50 71 5.1 41.1
09:25 1004 29.65 833 24.6 10.2 50.3 72 5.4 41.8
09:30 1004 29.65 833 24.6 10.1 50.2 72 5.4 41.7
09:35 1004 29.65 833 24.6 10.2 50.3 73 5.7 42.2
09:40 1004 29.65 833 24.6 10.3 50.5 73 5.7 42.2
09:45 1004 29.65 833 24.6 10.2 50.3 74 5.8 42.4
09:50 1004 29.65 833 24.6 10.3 50.5 74 5.9 42.6
09:55 1004 29.65 833 24.6 10.5 50.9 73 5.8 42.5
10:00 1004 29.65 833 24.6 10.4 50.7 73 5.9 42.5
10:05 1004 29.65 833 24.6 10.4 50.8 73 5.8 42.5
10:10 1004 29.65 833 24.6 10.7 51.2 69 5.3 41.5
10:15 1004 29.65 833 24.6 10.7 51.3 69 5.2 41.4
10:20 1004 29.65 833 24.6 10.7 51.2 67 4.9 40.8
10:25 1004 29.65 833 24.6 10.7 51.3 68 5 41.1
10:30 1004 29.65 833 24.6 10.7 51.3 69 5.3 41.5
10:35 1004 29.65 833 24.6 10.6 51.1 69 5.3 41.5
10:40 1004 29.65 833 24.6 10.7 51.3 69 5.3 41.6
10:45 1004 29.65 833 24.6 10.9 51.6 68 5.2 41.4
10:50 1004 29.65 833 24.6 11 51.8 69 5.5 42
10:55 1004 29.65 833 24.6 11 51.8 69 5.6 42.1
11:00 1004 29.65 833 24.6 11 51.8 71 5.9 42.6
11:05 1004 29.65 833 24.6 10.9 51.6 70 5.7 42.2
11:10 1004 29.65 833 24.6 11.1 52 70 5.8 42.5
11:15 1004 29.65 833 24.6 11.3 52.3 70 6 42.8
11:20 1004 29.65 833 24.6 11.4 52.5 68 5.8 42.4
11:25 1004 29.65 833 24.6 11.3 52.4 69 5.9 42.6
11:30 1004 29.65 833 24.6 11.3 52.3 70 5.9 42.7
11:35 1004 29.65 833 24.6 11.1 52 70 5.8 42.5
11:40 1004 29.65 833 24.6 11.2 52.1 69 5.8 42.4
11:45 1004 29.65 833 24.6 10.9 51.6 71 5.9 42.6
11:50 1004 29.65 833 24.6 10.7 51.2 72 5.8 42.5
11:55 1004 29.65 833 24.6 10.7 51.3 71 5.7 42.3
12:00 1004 29.65 833 24.6 10.9 51.6 72 6.1 43
12:05 1004 29.65 833 24.6 11.1 51.9 74 6.7 44
12:10 1004 29.65 833 24.6 11.2 52.1 72 6.3 43.4
12:15 1004 29.65 833 24.6 11.2 52.2 73 6.5 43.7
12:20 1004 29.65 833 24.6 11 51.9 76 7 44.6
12:25 1004 29.65 833 24.6 11 51.8 80 7.7 45.9
12:30 1004 29.65 833 24.6 11 51.9 80 7.8 46
12:35 1004 29.65 833 24.6 10.8 51.5 83 8.1 46.5
12:40 1004 29.65 833 24.6 10.3 50.6 80 7 44.6
12:45 1004 29.65 833 24.6 9.9 49.9 85 7.5 45.4
12:50 1004 29.65 833 24.6 9.9 49.7 84 7.2 45
12:55 1004 29.65 833 24.6 10 50 82 7.1 44.9
13:00 1004 29.65 833 24.6 10.2 50.3 83 7.4 45.4
13:05 1004 29.65 833 24.6 10.2 50.4 81 7.2 44.9
13:10 1004 29.65 833 24.6 10.4 50.6 81 7.2 44.9
13:15 1004 29.65 833 24.6 10.5 50.8 82 7.6 45.6
13:20 1004 29.65 833 24.6 10.5 50.9 81 7.4 45.3
13:25 1004 29.65 833 24.6 10.3 50.6 79 6.9 44.4
13:30 1004 29.65 833 24.6 10.3 50.6 79 6.9 44.5
13:35 1004 29.65 833 24.6 10.5 50.8 79 7 44.7
13:40 1004 29.65 833 24.6 10.5 51 80 7.3 45.1
13:45 1004 29.65 833 24.6 10.4 50.7 83 7.6 45.7
13:50 1004 29.65 833 24.6 10.3 50.5 85 7.9 46.2
13:55 1004 29.65 833 24.6 10.1 50.1 84 7.5 45.5
14:00 1004 29.65 833 24.6 10.1 50.1 85 7.7 45.9
14:05 1004 29.65 834 24.63 9.9 49.9 86 7.7 45.8
14:10 1004 29.65 834 24.63 9.8 49.6 86 7.6 45.7
14:15 1004 29.65 834 24.63 9.6 49.3 88 7.7 45.8
14:20 1005 29.68 834 24.63 9.6 49.2 87 7.5 45.5
14:25 1005 29.68 834 24.63 9.6 49.2 87 7.6 45.6
14:30 1005 29.68 834 24.63 9.6 49.4 87 7.6 45.6
14:35 1005 29.68 834 24.63 9.7 49.5 87 7.6 45.7
14:40 1005 29.68 834 24.63 9.8 49.6 86 7.5 45.5
14:45 1005 29.68 834 24.63 9.8 49.6 86 7.5 45.5
14:50 1005 29.68 834 24.63 9.8 49.7 86 7.6 45.6
14:55 1005 29.68 834 24.63 9.9 49.8 83 7.2 45
15:00 1005 29.68 834 24.63 9.8 49.6 85 7.4 45.3
15:05 1005 29.68 834 24.63 9.8 49.6 86 7.5 45.4
15:10 1005 29.68 834 24.63 10 50 79 6.6 44
15:15 1005 29.68 834 24.63 10 50.1 79 6.6 43.9
15:20 1005 29.68 834 24.63 10 50 80 6.7 44
15:25 1005 29.68 834 24.63 9.9 49.8 82 7 44.5
15:30 1005 29.68 835 24.66 9.8 49.6 80 6.5 43.8
15:35 1005 29.68 835 24.66 9.7 49.5 81 6.6 43.9
15:40 1005 29.68 835 24.66 9.7 49.5 80 6.4 43.6
15:45 1005 29.68 835 24.66 9.7 49.4 80 6.4 43.6
15:50 1006 29.71 835 24.66 9.6 49.2 81 6.5 43.6
15:55 1006 29.71 835 24.66 9.5 49.1 81 6.3 43.4
16:00 1006 29.71 835 24.66 9.5 49 83 6.7 44.1
16:05 1006 29.71 835 24.66 9.4 48.9 85 7 44.6
16:10 1006 29.71 835 24.66 9.2 48.5 87 7.2 44.9
16:15 1006 29.71 835 24.66 9 48.1 86 6.8 44.3
16:20 1006 29.71 835 24.66 8.8 47.8 89 7 44.6
16:25 1006 29.71 835 24.66 8.7 47.7 89 7.1 44.7
16:30 1006 29.71 835 24.66 8.7 47.7 89 7.1 44.8
16:35 1006 29.71 835 24.66 8.7 47.7 90 7.1 44.8
16:40 1006 29.71 835 24.66 8.6 47.4 89 6.8 44.3
16:45 1006 29.71 835 24.66 8.3 46.9 87 6.3 43.3
16:50 1006 29.71 835 24.66 8.2 46.7 88 6.3 43.4
16:55 1006 29.71 836 24.69 8 46.3 89 6.3 43.3
17:00 1006 29.71 836 24.69 7.9 46.1 89 6.1 43
17:05 1006 29.71 836 24.69 7.7 45.9 89 6 42.8
17:10 1006 29.71 836 24.69 7.8 46.1 87 5.8 42.5
17:15 1006 29.71 836 24.69 7.7 45.8 89 5.9 42.7
17:20 1006 29.71 836 24.69 7.7 45.9 88 5.9 42.6
17:25 1006 29.71 836 24.69 7.7 45.9 86 5.6 42
17:30 1006 29.71 836 24.69 7.8 46.1 87 5.7 42.3
17:35 1006 29.71 836 24.69 7.7 45.9 87 5.7 42.2
17:40 1006 29.71 836 24.69 7.7 45.9 86 5.5 42
17:45 1006 29.71 836 24.69 7.8 46.1 86 5.7 42.2
17:50 1006 29.71 836 24.69 7.9 46.2 86 5.7 42.2
17:55 1006 29.71 835 24.66 8 46.3 83 5.2 41.3
18:00 1006 29.71 835 24.66 7.9 46.3 84 5.3 41.6
18:05 1006 29.71 835 24.66 7.8 46.1 84 5.2 41.4
18:10 1006 29.71 836 24.69 7.8 46 81 4.8 40.7
18:15 1006 29.71 836 24.69 7.8 46 80 4.6 40.3
18:20 1006 29.71 836 24.69 7.7 45.9 81 4.7 40.5
18:25 1007 29.74 836 24.69 7.7 45.8 83 5 41
18:30 1007 29.74 836 24.69 7.5 45.6 83 4.8 40.6
18:35 1007 29.74 836 24.69 7.4 45.4 81 4.5 40.1
18:40 1007 29.74 836 24.69 7.5 45.5 79 4.1 39.4
18:45 1007 29.74 836 24.69 7.6 45.7 80 4.3 39.8
18:50 1007 29.74 837 24.72 7.6 45.6 81 4.6 40.2
18:55 1007 29.74 837 24.72 7.5 45.4 83 4.7 40.5
19:00 1008 29.77 837 24.72 7.4 45.3 82 4.6 40.3
19:05 1008 29.77 837 24.72 7.3 45.1 82 4.5 40.1
19:10 1008 29.77 837 24.72 7.2 45 84 4.7 40.4
19:15 1008 29.77 837 24.72 7.2 45 83 4.5 40.1
19:20 1008 29.77 837 24.72 7.2 45 83 4.6 40.3
19:25 1008 29.77 837 24.72 7.2 44.9 85 4.7 40.5
19:30 1008 29.77 837 24.72 7.1 44.7 85 4.7 40.5
19:35 1008 29.77 837 24.72 7 44.6 86 4.8 40.7
19:40 1008 29.77 837 24.72 6.9 44.4 87 4.9 40.8
19:45 1008 29.77 837 24.72 6.8 44.2 87 4.8 40.6
19:50 1008 29.77 837 24.72 6.7 44.1 87 4.7 40.5
19:55 1008 29.77 837 24.72 6.7 44 87 4.8 40.6
20:00 1008 29.77 837 24.72 6.7 44 88 4.8 40.6
20:05 1008 29.77 837 24.72 6.6 44 87 4.6 40.3
20:10 1008 29.77 837 24.72 6.6 43.8 88 4.8 40.6
20:15 1008 29.77 837 24.72 6.5 43.7 88 4.6 40.3
20:20 1008 29.77 837 24.72 6.5 43.7 87 4.5 40.1
20:25 1008 29.77 837 24.72 6.5 43.6 87 4.5 40.1
20:30 1008 29.77 837 24.72 6.5 43.6 88 4.6 40.2
20:35 1007 29.74 837 24.72 6.5 43.7 87 4.4 40
20:40 1007 29.74 837 24.72 6.5 43.7 86 4.4 39.9
20:45 1007 29.74 837 24.72 6.5 43.7 87 4.5 40.1
20:50 1007 29.74 837 24.72 6.5 43.7 87 4.4 40
20:55 1007 29.74 837 24.72 6.5 43.6 86 4.2 39.6
21:00 1007 29.74 837 24.72 6.5 43.7 86 4.3 39.8
21:05 1007 29.74 837 24.72 6.5 43.7 86 4.4 39.9
21:10 1007 29.74 837 24.72 6.5 43.6 87 4.5 40.1
21:15 1008 29.77 837 24.72 6.4 43.6 87 4.4 40
21:20 1008 29.77 837 24.72 6.3 43.4 88 4.4 40
21:25 1008 29.77 837 24.72 6.3 43.3 88 4.4 40
21:30 1008 29.77 837 24.72 6.2 43.1 89 4.5 40.1
21:35 1008 29.77 837 24.72 6.1 43 90 4.6 40.2
21:40 1008 29.77 837 24.72 6.1 42.9 90 4.5 40.1
21:45 1008 29.77 837 24.72 6.1 43 89 4.5 40.1
21:50 1008 29.77 837 24.72 6.1 42.9 90 4.6 40.2
21:55 1008 29.77 837 24.72 5.9 42.7 91 4.5 40.1
22:00 1008 29.77 837 24.72 5.8 42.5 90 4.4 39.9
22:05 1008 29.77 837 24.72 5.8 42.4 91 4.4 39.9
22:10 1008 29.77 837 24.72 5.7 42.3 92 4.4 40
22:15 1008 29.77 837 24.72 5.6 42.2 92 4.4 40
22:20 1008 29.77 837 24.72 5.6 42.1 92 4.4 40
22:25 1008 29.77 837 24.72 5.6 42.1 93 4.5 40.1
22:30 1008 29.77 837 24.72 5.6 42.1 93 4.6 40.3
22:35 1008 29.77 837 24.72 5.6 42 93 4.5 40.1
22:40 1008 29.77 837 24.72 5.5 41.9 93 4.4 40
22:45 1008 29.77 837 24.72 5.5 41.9 93 4.5 40.1
22:50 1008 29.77 837 24.72 5.4 41.8 93 4.5 40
22:55 1008 29.77 837 24.72 5.5 41.8 93 4.5 40
23:00 1008 29.77 837 24.72 5.5 41.9 93 4.4 40
23:05 1008 29.77 837 24.72 5.4 41.7 93 4.3 39.8
23:10 1008 29.77 837 24.72 5.3 41.6 93 4.4 39.9
23:15 1008 29.77 837 24.72 5.3 41.6 94 4.4 39.9
23:20 1008 29.77 837 24.72 5.3 41.6 93 4.3 39.7
23:25 1008 29.77 837 24.72 5.3 41.5 94 4.3 39.8
23:30 1008 29.77 837 24.72 5.3 41.5 94 4.4 39.8
23:35 1008 29.77 837 24.72 5.3 41.5 94 4.4 39.9
23:40 1008 29.77 837 24.72 5.2 41.4 94 4.3 39.8
23:45 1008 29.77 837 24.72 5.2 41.4 94 4.4 39.9
23:50 1008 29.77 837 24.72 5.1 41.3 94 4.3 39.8
23:55 1008 29.77 837 24.72 5.1 41.2 95 4.3 39.8
24:00 1008 29.77 837 24.72 5.1 41.2 94 4.3 39.7